CSIM
1 43793U 18099AM  24321.76990210  .00046910  00000-0  16284-2 0  9992
2 43793  97.5139  26.2802 0009375 138.1192 222.0767 15.29585152325976
JO-97
1 43803U 18099AX  24321.66714699  .00015457  00000-0  87290-3 0  9996
2 43803  97.4995  17.3114 0009525 133.5843 226.6180 15.13172964325709
Suomi 100
1 43804U 18099AY  24321.68839236  .00014186  00000-0  83164-3 0  9998
2 43804  97.5068  17.0396 0015031 134.9723 225.2728 15.11790029325677
ISAT
1 43879U 18111D   24321.45851323  .00023373  00000-0  11435-2 0  9990
2 43879  97.6063 227.0013 0010549 180.3432 179.7796 15.18155822320435
UWE-4
1 43880U 18111E   24322.23710503  .00014363  00000-0  74284-3 0  9994
2 43880  97.5996 227.3427 0013471 193.3368 166.7510 15.16284016320562
Sparrow
1 43881U 18111F   24322.68855367  .00020225  00000-0  96977-3 0  9999
2 43881  97.6174 230.4726 0006408 217.7645 142.3140 15.18918978320719
Prox-1
1 44339U 19036A   24321.37287249  .00018572  00000-0  28126-2 0  9990
2 44339  24.0000 322.4855 0007809 258.0775 101.8845 14.72612506287747
SONATE
1 44400U 19038Q   24322.78838386  .00039314  00000-0  76541-3 0  9993
2 44400  97.7133 325.0748 0009314 278.7566  81.2628 15.47421448297714
Taurus 1
1 44530U 19059C   24322.75324501  .00009723  00000-0  20212-2 0  9990
2 44530  98.5893  87.5967 0010377 300.7092  59.3084 14.60262360274137
Duchifat 3
1 44854U 19089C   24322.78147219  .00026172  00000-0  97672-3 0  9996
2 44854  36.9506 190.4954 0012441 308.8381  51.1258 15.26524977271595
TO-108
1 44881U 19093C   24322.75795219  .00002120  00000-0  25638-3 0  9997
2 44881  97.8157  36.5553 0014179 174.8106 185.3259 14.84683759265821
FloripaSat 1
1 44885U 19093G   24322.74273538  .00007422  00000-0  69868-3 0  9998
2 44885  97.8325  44.4344 0011787 162.6993 197.4630 14.94094157266264
RS-44
1 44909U 19096E   24321.64331908  .00000042  00000-0  11959-3 0  9991
2 44909  82.5239   3.4692 0218363  54.9648 307.1728 12.79736011228524
UPMSat 2
1 46276U 20061E   24321.44812510  .00037279  00000-0  80338-3 0  9994
2 46276  97.2778  26.7008 0000526  12.8560 347.2702 15.44499354233589
AmicalSat
1 46287U 20061R   24321.92879413  .00141913  00000-0  13825-2 0  9991
2 46287  97.3243  31.3300 0001325 313.9812  46.1339 15.65789625233182
SALSAT
1 46495U 20068K   24321.84977938  .00010367  00000-0  52039-3 0  9990
2 46495  97.8371 285.5636 0014090 141.2203 219.0043 15.17419524227422
IDEASSat
1 47458U 21006AX  24322.10314758  .00318364  00000-0  14500-2 0  9996
2 47458  97.2991  24.9848 0002579 326.4304  33.6801 15.82992803212358
CubeSX-Sirius-HSE
1 47951U 21022V   24322.81597371  .00042763  00000-0  10803-2 0  9993
2 47951  97.4407 221.8622 0008813 331.6466  28.4299 15.39650586202085
CubeSX-HSE
1 47952U 21022W   24322.81635417  .00045269  00000-0  11318-2 0  9994
2 47952  97.4405 221.9976 0008702 329.7163  30.3579 15.39954960202093
KSU-Cubesat
1 47954U 21022Y   24322.67852405  .00067455  00000-0  13013-2 0  9993
2 47954  97.4405 224.2557 0005789 330.9591  29.1336 15.47582215201946
GRBAlpha
1 47959U 21022AD  24322.77427250  .00043468  00000-0  10872-2 0  9993
2 47959  97.4406 222.1229 0008627 330.2653  29.8101 15.39952898200913
Orbicraft-Zorkiy
1 47960U 21022AE  24322.79822005  .00060983  00000-0  12941-2 0  9994
2 47960  97.4450 224.2095 0006851 332.8754  27.2136 15.44816566201711
TUBIN
1 48900U 21059X   24322.77049562  .00029573  00000-0  73272-3 0  9991
2 48900  97.6619 113.0669 0005520 263.7066  96.3551 15.40348162188470
LEDSAT
1 49069U 21073D   24322.69020073  .00031666  00000-0  90231-3 0  9991
2 49069  97.4198  33.6533 0015866  98.7072 261.5969 15.35900834179913
CUTE
1 49263U 21088D   24322.12563353  .00033405  00000-0  10835-2 0  9998
2 49263  97.4786  28.0461 0010410 261.8509  98.1552 15.31852236172944
TeikyoSat 4
1 49396U 21102B   24321.16236308  .00003432  00000-0  23935-3 0  9995
2 49396  97.4404   0.8733 0014594 114.1166 246.1589 15.05957194165615
Z-Sat
1 49399U 21102E   24322.78255371  .00005829  00000-0  34848-3 0  9995
2 49399  97.4112   4.4675 0020963  89.5079 270.8553 15.11256376166161
KOSEN 1
1 49402U 21102H   24322.66146102  .00008488  00000-0  44954-3 0  9991
2 49402  97.4031   6.4485 0018970  72.0374 288.2924 15.15499537166355
HO-113
1 50466U 21131B   24322.76542904  .00001142  00000-0  37472-3 0  9993
2 50466  98.5223  47.1198 0004639  40.3592 319.7940 14.40257845152109
IRIS-A
1 51044U 22002BN  24322.18220355  .00040867  00000-0  86034-3 0  9998
2 51044  97.3642  29.1999 0004392 200.3914 159.7160 15.45162677157920
Planetum 1
1 52738U 22057G   24322.11519059  .00579421  13619-3  16996-2 0  9999
2 52738  97.5656  97.3920 0008770 295.2572  64.7792 15.92660976138355
Foresail-1
1 52766U 22057AL  24321.88964759  .00039778  00000-0  82971-3 0  9994
2 52766  97.5976  92.4050 0007936 304.8297  55.2204 15.45418591137911
SNUGLITE 2
1 52899U 22065F   24322.15620406  .00002196  00000-0  44669-3 0  9995
2 52899  98.1413 100.6574 0008187  40.9912 319.1904 14.62041076126606
IO-117
1 53106U 22080B   24317.91823954 -.00000003  00000-0  00000-0 0  9999
2 53106  70.1294 140.8531 0008378  74.0630 286.0952  6.42557820 54828
FO-118
1 54684U 22167C   24322.79768362  .00080964  00000-0  13731-2 0  9990
2 54684  97.6160 113.3166 0008884 310.5971  49.4506 15.51184086107918
SSS-2B
1 56184U 23054G   24322.75664799  .00210584  00000-0  13711-2 0  9999
2 56184  97.3407 224.4639 0004950  68.6375 291.5418 15.75298152 89966
SO-120
1 56992U 23084BU  24321.61225212  .00113933  00000-0  18760-2 0  9995
2 56992  97.5425  84.7447 0008026 213.9371 146.1369 15.51897370 79597
MRC-100
1 56993U 23084BV  24321.86942496  .00166876  00000-0  18662-2 0  9998
2 56993  97.5367  86.4215 0007343 232.1546 127.9047 15.62157168 79735
UmKA 1 (RS40S)
1 57172U 23091G   24322.83163328  .00008402  00000-0  50344-3 0  9997
2 57172  97.5908  13.4902 0014870 320.2994  39.7147 15.11148476 76664
CubeBel-2 (EU11S)
1 57175U 23091K   24322.79294196  .00009764  00000-0  55412-3 0  9996
2 57175  97.5908  13.6834 0013203 332.7592  27.2945 15.13081827 76671
VERONIKA
1 58261U 23174F   24322.74485061  .00035664  00000-0  10843-2 0  9999
2 58261  97.4441  37.1231 0009591  61.7323 298.4886 15.33912094 57134
KAFASAT
1 58317U 23174BP  24322.19466301  .00056037  00000-0  12955-2 0  9999
2 58317  97.4372  38.1894 0007397  31.3062 328.8624 15.42283906 57175
ENSO
1 58470U 23185J   24322.81425750  .00029294  00000-0  89355-3 0  9997
2 58470  97.4064  28.7177 0010856  95.0334 265.2148 15.33837179 53599
EIRSAT-1
1 58472U 23185L   24322.80570329  .00034900  00000-0  99797-3 0  9992
2 58472  97.4058  28.9995 0010124  94.9342 265.3058 15.35845282 53619
SONATE-2
1 59112U 24043Q   24321.62236286  .00020405  00000-0  80516-3 0  9992
2 59112  97.4954  84.6099 0013591 119.5784 240.6810 15.25491818 38981
MO-122
1 60209U 24125G   24321.33893120  .00022845  00000-0  89576-3 0  9991
2 60209  97.3005 170.4693 0023979 145.4146 214.8658 15.25490754 20556
GRBBeta
1 60237U 24128C   24322.76783668  .00006148  00000-0  51255-3 0  9999
2 60237  61.9949  68.4745 0026918   4.2283 355.9029 14.99345033 19607
Curium One
1 60242U 24128H   24322.67067701  .00009187  00000-0  74996-3 0  9991
2 60242  61.9853  68.9559 0027147 354.5451   5.5339 14.99719314 19595
ROBUSTA-3A
1 60243U 24128J   24322.75720039  .00009239  00000-0  76067-3 0  9990
2 60243  61.9917  68.9209 0025253 351.6345   8.4319 14.99423262 19601
CatSat
1 60246U 24125J   24322.08492406  .00013185  00000-0  53339-3 0  9992
2 60246  97.2813 172.0904 0050600  98.9715 261.7255 15.23627146 18771
CosmoGirlSat
1 60953U 98067WT  24321.83696768  .00386280  00000-0  17557-2 0  9992
2 60953  51.6243 271.7964 0008275 148.0342 212.1164 15.82215528 12421
Sakura
1 60954U 98067WU  24322.55240802  .00619248  16240-3  18810-2 0  9999
2 60954  51.6222 266.8023 0009013 152.0393 208.1099 15.91405296 12551
CySat-1
1 61501U 98067WZ  24322.17640171  .00145252  00000-0  15014-2 0  9995
2 61501  51.6339 275.5981 0009952 165.1649 194.9639 15.63707476  6234
DORA
1 61502U 98067XA  24322.10967074  .00720905  00000-0  33156-2 0  9994
2 61502  51.6247 274.3833 0013495 151.7921 208.3814 15.81049439  6230
